Regional Weather Roundup
Issued by NWS

Home | Current Version | Previous Version | Graphics & Text | Print | Product List | Glossary Off
Versions: 1 2 3 4 5 6 7 8 9 10 11 12 13 14 15 16 17 18 19 20 21 22 23 24 25 26 27 28 29 30 31 32 33 34 35 36 37 38 39 40 41 42 43 44 45 46 47 48 49 50

000
ASUS45 KBOI 122310
RWRID

IDAHO REGIONAL WEATHER ROUNDUP
NATIONAL WEATHER SERVICE BOISE ID
400 PM MST FRI FEB 12 2016

NOTE: "FAIR" INDICATES FEW OR NO CLOUDS BELOW 12000 FEET
WITH NO SIGNIFICANT WEATHER AND/OR OBSTRUCTIONS TO VISIBILITY

IDZ012-014-130000-
SOUTHWEST IDAHO


CITY           SKY/WX    TMP DP  RH WIND       PRES   REMARKS
BOISE          PTSUNNY   48  33  56 CALM      30.24F
CALDWELL       PTSUNNY   45  35  68 SW6       30.26F
MOUNTAIN HOME  CLOUDY    52  32  46 SE2       30.23S
$$

IDZ016-017-130000-
SOUTHCENTRAL IDAHO


CITY           SKY/WX    TMP DP  RH WIND       PRES   REMARKS
BURLEY         PTSUNNY   50  35  56 N8        30.22F
JEROME         PTSUNNY   37  28  70 NE16      30.24S WCI  28
TWIN FALLS     MOSUNNY   46  37  71 NE9       30.24R
$$

IDZ019>023-130000-
SOUTHEAST IDAHO


CITY           SKY/WX    TMP DP  RH WIND       PRES   REMARKS
IDAHO FALLS    CLOUDY    31  25  78 N7        30.30R WCI  24
POCATELLO      CLOUDY    41  30  65 NW6       30.28S
REXBURG        CLOUDY    38  27  64 E3        30.28S
$$

IDZ006-010-011-018-031-032-130000-
CENTRAL IDAHO MOUNTAINS


CITY           SKY/WX    TMP DP  RH WIND       PRES   REMARKS
MCCALL         CLOUDY    44  28  53 N3        30.20F
STANLEY          N/A     49  28  44 NE3       30.23S
SALMON         CLOUDY    34  28  80 CALM      30.22S
CHALLIS        MOSUNNY   36  27  69 CALM      30.21F
$$

IDZ002-004-006-007-026-130000-
NORTHERN IDAHO


CITY           SKY/WX    TMP DP  RH WIND       PRES   REMARKS
LEWISTON       CLOUDY    56  38  50 S3        30.11F
LOWELL           N/A     52  42  69 CALM      30.16F
COEUR D`ALENE  PTSUNNY   48  43  81 NE7       30.09S
MULLAN PASS    CLOUDY    39  35  86 CALM      30.11F
$$



USA.gov is the U.S. government's official web portal to all federal, state and local government web resources and services.